Lamoni Municipal Airport
Wednesday 11:53 PM
Temperature64° (77°/56°)
Dew Point59°
Relative Humidity84
%
Visibility10
mi
Pressure1014.9
mb
Wind DirectionS
180°
Wind Speed7
mph
Precipitation Today0.00"

Last 30 Observations

Time PresWx Temp DP Feels RH% Vsby Pressure Ceiling Direction Speed 1h Precip
11:53 PM 64° 59° 84
%
10
mi
1014.9
mb
S
180°
7
mph
0.00"
10:53 PM 64° 60° 87
%
10
mi
1014.9
mb
S
170°
6
mph
0.00"
9:53 PM 65° 60° 84
%
10
mi
1014.9
mb
S
170°
6
mph
0.00"
8:53 PM 66° 60° 81
%
10
mi
1014.9
mb
SSW
200°
5
mph
0.00"
7:53 PM 68° 60° 76
%
10
mi
1014.6
mb
SSW
200°
5
mph
0.00"
6:53 PM 71° 60° 71°68
%
10
mi
1014.6
mb
SSW
210°
7
mph
0.00"
5:53 PM 74° 61° 74°64
%
10
mi
1014.2
mb
SSW
200°
8
mph
0.00"
4:53 PM 77° 61° 77°58
%
10
mi
1014.6
mb
SW
220°
9
mph
0.00"
3:53 PM 77° 59° 77°54
%
10
mi
1015.2
mb
SSW
200°
15
mph
(G20)
0.00"
2:53 PM 77° 59° 77°54
%
10
mi
1015.6
mb
SSW
200°
10
mph
0.00"
1:53 PM 75° 62° 75°64
%
10
mi
1016.6
mb
5,000
ft
S
180°
8
mph
0.00"
12:53 PM 73° 62° 73°68
%
10
mi
1017.3
mb
4,900
ft
SE
130°
5
mph
0.00"
12:28 PM 72° 62° 72°71
%
10
mi
1017.6
mb
S
170°
6
mph
0.00"
12:18 PM 72° 62° 72°71
%
10
mi
1017.6
mb
Variable 3
mph
0.00"
12:04 PM 72° 62° 72°71
%
10
mi
1017.6
mb
SW
220°
6
mph
0.00"
11:53 AM 72° 63° 72°73
%
10
mi
1017.6
mb
Variable 3
mph
0.00"
10:53 AM 68° 64° 87
%
10
mi
1018.3
mb
3,600
ft
S
190°
3
mph
0.00"
10:33 AM 65° 63° 93
%
10
mi
1018.3
mb
3,600
ft
Calm 0.00"
10:08 AM BR 63° 61° 93
%
5
mi
1018.3
mb
200
ft
SSE
160°
3
mph
0.00"
9:58 AM BR 63° 62° 97
%
2
mi
1018.3
mb
200
ft
Calm 0.00"
9:53 AM BR 62° 61° 96
%
¾
mi
1018.3
mb
200
ft
Calm 0.00"
8:53 AM FG 58° 57° 97
%
¼
mi
1018.3
mb
200
ft
Calm 0.00"
7:53 AM FG 57° 56° 96
%
¼
mi
1018.0
mb
200
ft
Calm 0.00"
6:53 AM FG 57° 56° 96
%
¼
mi
1017.6
mb
100
ft
S
170°
6
mph
0.00"
5:53 AM FG 58° 57° 97
%
¼
mi
1017.6
mb
100
ft
SSE
160°
6
mph
0.00"
5:51 AM FG 57° 57° 100
%
½
mi
1018.0
mb
100
ft
SSE
160°
6
mph
0.00"
5:44 AM BR 58° 57° 97
%
1
mi
1017.6
mb
200
ft
S
170°
6
mph
0.00"
5:40 AM BR 58° 57° 97
%
mi
1018.0
mb
SSE
160°
6
mph
0.00"
4:53 AM 60° 58° 93
%
7
mi
1017.6
mb
SSE
160°
5
mph
0.00"
3:53 AM 58° 57° 97
%
8
mi
1018.0
mb
3,800
ft
SSW
200°
5
mph
0.00"